Location: Dallas
(32.7833°N, 96.8000°W)
Time: 13:42:27
(UTC-05:00)

Envisat - Pass Details

Date: 03 July 2022
Orbit: 763 x 765 km, 98.2° (Epoch: 07 August)

Event Time Altitude Azimuth Distance (km) Brightness Sun altitude
Rises 04:36:19 0° 38° (NE) 3,231 7.9 -18.9°
Reaches altitude 10° 04:40:03 10° 66° (ENE) 2,299 6.5 -18.4°
Maximum altitude 04:42:16 13° 92° (E) 2,105 5.8 -18.1°
Drops below altitude 10° 04:44:28 10° 119° (ESE) 2,293 5.7 -17.7°
Sets 04:48:09 0° 147° (SSE) 3,213 6.1 -17.2°
